Weather Service Report


389 
ASUS43 KFSD 070110
RWRFSD

WEATHER ROUNDUP FOR SE SOUTH DAKOTA/SW MINNESOTA/NW IOWA
NATIONAL WEATHER SERVICE SIOUX FALLS SD
700 PM CST SAT FEB 06 2016

NOTE: "FAIR" INDICATES FEW OR NO CLOUDS BELOW 12,000 FEET WITH NO
SIGNIFICANT WEATHER AND OR OBSTRUCTIONS TO VISIBILITY.


SDZ038>040-050-052>070-070200-
SOUTHEAST SOUTH DAKOTA
  
CITY           SKY/WX    TMP DP  RH WIND       PRES   REMARKS
BROOKINGS      CLOUDY    33  27  78 S5        29.81S WCI  29          
CHAMBERLAIN    CLOUDY    40  30  68 W10       29.84R                  
HURON          CLOUDY    37  31  78 S7        29.80S                  
MADISON        FAIR      34  34 100 SW10      29.81F WCI  26          
MITCHELL       CLOUDY    40  32  73 SW9       29.83S                  
SIOUX FALLS    CLOUDY    33  26  75 SW9       29.85F WCI  25          
WINNER         FAIR      39  28  64 W10       29.85R                  
YANKTON        CLOUDY    37  27  65 SW10      29.87S                  
$$

MNZ071-072-080-081-089-090-097-098-070200-
SOUTHWEST MINNESOTA
  
CITY           SKY/WX    TMP DP  RH WIND       PRES   REMARKS
FAIRMONT       CLOUDY    34  27  75 S18       29.87F WCI  23          
JACKSON        CLOUDY    34  27  75 SW18      29.87F WCI  23          
LUVERNE        CLOUDY    32  27  80 S9        29.86F WCI  24          
MARSHALL       CLOUDY    36  26  67 SW18      29.80F                  
MONTEVIDEO     CLOUDY    36  30  80 W12       29.81S                  
PIPESTONE        N/A     34  21  60 SW14      29.82  WCI  24          
REDWOOD FALLS  CLOUDY    35  28  75 SW14      29.84R WCI  26          
TRACY          CLOUDY    35  29  79 SW20G26   29.82R WCI  24          
WINDOM         CLOUDY    34  28  80 SW13      29.84F WCI  25          
WORTHINGTON    CLOUDY    32  25  74 SW21G26   29.86S WCI  20          
$$

IAZ001>003-012>014-020>022-031-032-NEZ013-014-SDZ071-070200-
NORTHWEST IOWA
  
CITY           SKY/WX    TMP DP  RH WIND       PRES   REMARKS
CHEROKEE       PTCLDY    35  28  74 SW14G22   29.92F WCI  26          
DENISON        CLOUDY    36  28  75 SW15G22   29.95R                  
ESTHERVILLE    CLOUDY    33  27  78 S18       29.88F WCI  22          
LE MARS        CLOUDY    34  28  80 S12       29.91F WCI  25          
ORANGE CITY    CLOUDY    30  28  93 S9        29.89S WCI  22          
SHELDON        CLOUDY    32  27  80 S16       29.87S WCI  21          
SIOUX CITY     PTCLDY    36  27  69 SW8       29.94S                  
SPENCER        MOCLDY    33  25  72 SW13      29.89S WCI  24          
STORM LAKE     PTCLDY    34  32  93 SW17      29.92R WCI  23          
$$
 
ABBREVIATIONS USED IN REMARKS
   TC - TEMPERATURE IN CELSIUS
  WCI - WIND CHILL INDEX
   HX - HEAT INDEX
  VSB - VISIBILITY

  


390 
ASUS43 KFSD 070110
RWRSD 

WEATHER ROUNDUP FOR SOUTH DAKOTA
NATIONAL WEATHER SERVICE SIOUX FALLS SD
700 PM CST SAT FEB 06 2016

NOTE: "FAIR" INDICATES FEW OR NO CLOUDS BELOW 12,000 FEET WITH NO
SIGNIFICANT WEATHER AND/OR OBSTRUCTIONS TO VISIBILITY.


SDZ001>005-009-010-012>017-070200-
NORTHWEST AND NORTH CENTRAL SOUTH DAKOTA
  
CITY           SKY/WX    TMP DP  RH WIND       PRES   REMARKS
BUFFALO          N/A     43  20  39 NW35G47   29.83R                  
FAITH            N/A     40  24  53 MISG      29.85F                  
MOBRIDGE       CLOUDY    47  22  37 W15       29.75R                  
$$
 
SDZ012>016-024>037-041>051-057-063-072>074-070200-
SOUTHWEST AND SOUTH CENTRAL SOUTH DAKOTA
  
CITY           SKY/WX    TMP DP  RH WIND       PRES   REMARKS
RAPID CTY ARPT CLOUDY    39  27  62 NW38G53   29.93R                  
PIERRE         CLOUDY    44  29  55 W14       29.86R                  
CUSTER         CLOUDY    34  20  56 W10       29.94R WCI  26          
ELLSWORTH AFB  CLEAR     39  28  63 NW41G52   29.92R                  
PHILIP         CLOUDY    41  31  67 NW10      29.92R                  
PINE RIDGE     CLOUDY    42  25  50 W18       29.94R                  
SPEARFISH      MIX PCPN  39  21  48 W26G46    29.98S                  
WINNER         FAIR      39  28  64 W10       29.85R                  
$$
 
SDZ004>011-016>023-039-040-070200-
NORTHEAST SOUTH DAKOTA
  
CITY           SKY/WX    TMP DP  RH WIND       PRES   REMARKS
ABERDEEN       CLOUDY    37  31  78 S12       29.76F                  
WATERTOWN      CLOUDY    33  27  78 SW10      29.78R WCI  25          
BROOKINGS      CLOUDY    33  27  78 S5        29.81S WCI  29          
SISSETON         N/A     38  31  76 W18G28    29.74R                  
$$
 
SDZ017-020-022-023-036>040-048>070-070200-
SOUTHEAST SOUTH DAKOTA
  
CITY           SKY/WX    TMP DP  RH WIND       PRES   REMARKS
SIOUX FALLS    CLOUDY    33  26  75 SW9       29.85F WCI  25          
HURON          CLOUDY    37  31  78 S7        29.80S                  
CHAMBERLAIN    CLOUDY    40  30  68 W10       29.84R                  
MITCHELL       CLOUDY    40  32  73 SW9       29.83S                  
YANKTON        CLOUDY    37  27  65 SW10      29.87S                  
$$
 
ABBREVIATIONS USED IN REMARKS
   TC - TEMPERATURE IN CELSIUS
  WCI - WIND CHILL INDEX
   HX - HEAT INDEX
  VSB - VISIBILITY

  

Return to Home page


Western Regional Climate Center, wrcc@dri.edu